Home   Weather   Heraklion   Past weeks

Flag for Greece Past Weather in Heraklion, Crete, Greece — Yesterday and Last 2 Weeks

72 °F

Passing clouds.

Feels Like: 71 °F
Forecast: 67 / 74 °F
Wind: 7 mph from Northeast

Location: Heraklion Airport

Current Time: Oct 23, 2016 at 9:07:56 PM

Latest Report: Oct 23, 2016 at 8:20 PM

Visibility: N/A

Pressure: 30.07 "Hg

Humidity: 83%

Dew Point: 66 °F

Location of HeraklionLocation

Past Weather in Heraklion — Graph


Heraklion Temperature Yesterday

Maximum temperature yesterday: 77 °F (at 1:50 PM)
Minimum temperature yesterday: 64 °F (at 12:20 AM)
Average temperature yesterday: 70 °F

High & Low Weather Summary for the Past Weeks

High86 °F (Oct 11, 6:50 PM)94% (Oct 9, 7:50 PM)30.15 "Hg (Oct 9, 7:50 PM)
Low59 °F (Oct 14, 5:50 AM)35% (Oct 11, 8:50 PM)29.80 "Hg (Oct 11, 4:50 PM)
Average71 °F70%30.04 "Hg
* Reported Oct 8 7:20 PM — Oct 23 7:50 PM, Heraklion, Weather by CustomWeather, © 2016

Note: Actual official high and low records may vary slightly from our data, if they occured in-between our weather recording intervals... More about our weather records


Heraklion Weather History for the Previous 24 Hours

Scroll right to see more
Time TempWeatherWind HumidityBarometerVisibility
7:50 PM
Sun, Oct 23
72 °FPassing clouds.6 mph83%30.07 "HgN/A
7:20 PM72 °FPassing clouds.8 mph88%30.07 "HgN/A
6:50 PM72 °FPassing clouds.8 mph88%30.07 "HgN/A
6:20 PM73 °FScattered clouds.8 mph83%30.07 "HgN/A
5:50 PM73 °FScattered clouds.9 mph83%30.07 "HgN/A
5:20 PM73 °FScattered clouds.8 mph83%30.07 "Hg6 mi
4:50 PM73 °FScattered clouds.9 mph83%30.07 "Hg6 mi
4:20 PM75 °FScattered clouds.9 mph83%30.04 "Hg6 mi
3:50 PM75 °FScattered clouds.8 mph83%30.04 "Hg6 mi
3:20 PM77 °FScattered clouds.8 mph79%30.04 "HgN/A
2:50 PM77 °FScattered clouds.8 mph79%30.04 "HgN/A
2:20 PM75 °FScattered clouds.9 mph83%30.04 "HgN/A
1:50 PM75 °FScattered clouds.6 mph83%30.04 "HgN/A
1:20 PM79 °FScattered clouds.10 mph74%30.07 "HgN/A
12:50 PM79 °FScattered clouds.9 mph74%30.07 "HgN/A
12:20 PM77 °FSunny.7 mph69%30.07 "Hg10 mi
11:50 AM77 °FSunny.5 mph69%30.07 "Hg10 mi
11:20 AM77 °FSunny.3 mph65%30.07 "Hg10 mi
10:50 AM77 °FSunny.6 mph61%30.07 "Hg10 mi
10:20 AM77 °FSunny.5 mph57%30.07 "Hg10 mi
9:50 AM77 °FSunny.6 mph57%30.07 "Hg10 mi
9:20 AM72 °FPassing clouds.No wind61%30.07 "HgN/A
8:50 AM72 °FPassing clouds.No wind61%30.07 "HgN/A
8:20 AM70 °FPassing clouds.6 mph60%30.04 "HgN/A
6:50 AM70 °FPassing clouds.6 mph60%30.01 "HgN/A
6:20 AM68 °FPassing clouds.8 mph73%30.01 "HgN/A
5:50 AM68 °FPassing clouds.8 mph73%30.01 "HgN/A
5:20 AM68 °FPassing clouds.13 mph73%30.01 "HgN/A
4:50 AM68 °FPassing clouds.13 mph73%30.01 "HgN/A
4:20 AM68 °FPassing clouds.9 mph73%30.01 "HgN/A
3:50 AM68 °FPassing clouds.9 mph73%30.01 "HgN/A
3:20 AM68 °FPassing clouds.10 mph73%30.01 "HgN/A
2:50 AM68 °FPassing clouds.10 mph73%30.01 "HgN/A
2:20 AM68 °FPassing clouds.8 mph73%30.01 "HgN/A
1:50 AM68 °FPassing clouds.8 mph73%30.01 "HgN/A
1:20 AM68 °FPassing clouds.3 mph69%30.04 "HgN/A
12:50 AM68 °FPassing clouds.3 mph69%30.04 "HgN/A
12:20 AM68 °FPassing clouds.10 mph69%30.04 "HgN/A
11:50 PM
Sat, Oct 22
68 °FPassing clouds.10 mph69%30.04 "HgN/A
11:20 PM66 °FPassing clouds.5 mph78%30.07 "HgN/A
10:50 PM66 °FPassing clouds.5 mph78%30.07 "HgN/A
10:20 PM68 °FPassing clouds.5 mph78%30.07 "HgN/A
9:50 PM68 °FPassing clouds.5 mph78%30.07 "HgN/A
9:20 PM68 °FPassing clouds.5 mph88%30.09 "HgN/A
Weather by CustomWeather, © 2016

See weather overviewHow to use our weather pages